Theta_e
303 303 303 303 303 303 303 303 304 304 305 306 307 308 310 312 314 315 316 317 318 318 319 319 319 318 317 316 315 315 314 313 313 312 313 318 319 318 318 319 319 319 317 316 321 329 330 333 336 337 342 345 346 347 347 349 348 348 352 349 346 348 347 346 347 346 346 346 344 345 347 347 345 346 348 347 347 350 351 351 351 353 353 352 354 353 353 351
303 303 303 303 303 303 303 303 303 304 304 304 304 304 305 306 308 311 313 315 317 318 319 319 319 319 317 316 315 315 314 313 313 313 316 320 319 318 319 318 318 319 317 316 323 330 331 334 335 337 342 345 347 347 345 347 347 346 350 348 345 349 350 348 346 347 347 346 346 345 346 347 346 346 348 347 347 350 349 350 352 353 353 353 354 353 353 350
303 303 303 303 303 303 303 303 303 304 304 304 304 304 305 305 305 306 308 311 314 316 318 319 319 319 318 315 315 314 314 314 316 316 318 320 320 319 318 318 318 318 317 317 323 328 330 334 334 337 343 345 346 346 344 344 347 346 346 346 347 348 348 348 348 349 349 348 347 346 346 347 346 345 347 347 347 348 348 349 353 353 353 354 353 354 353 351
302 302 302 302 302 302 303 303 303 303 304 304 304 305 305 305 305 305 306 307 310 313 316 318 319 319 318 315 314 314 314 318 321 321 321 320 320 320 318 317 317 318 317 318 325 327 329 334 335 338 344 345 344 345 344 342 346 346 343 346 349 348 347 349 348 348 350 348 348 346 345 346 345 345 347 348 347 347 347 349 352 352 354 354 353 353 352 352
302 303 303 303 303 303 303 303 303 303 303 304 304 304 305 305 306 306 305 305 307 311 315 317 319 319 318 315 313 313 316 321 326 327 325 322 321 321 320 319 317 318 317 319 326 328 330 334 336 340 344 344 343 343 343 343 345 345 344 347 349 349 351 351 347 347 350 350 350 348 346 346 346 346 347 348 348 347 347 348 350 350 353 353 352 352 352 353
303 303 303 303 303 303 303 304 304 304 304 304 304 304 305 305 306 306 306 306 306 309 314 317 318 318 317 315 312 312 317 322 326 327 325 323 322 321 321 320 319 319 317 320 328 332 334 335 336 341 345 344 341 341 342 343 344 344 345 346 348 348 350 351 347 348 350 349 350 348 346 346 346 346 346 348 347 347 348 348 349 350 352 353 352 352 352 353
303 303 303 303 303 303 303 304 304 304 304 304 304 304 305 305 305 306 306 306 306 309 314 316 318 317 316 314 312 313 317 322 323 324 324 322 321 320 321 321 320 319 319 323 329 334 336 335 337 342 344 343 340 340 341 342 344 344 343 344 347 347 348 349 348 348 348 347 348 348 346 346 347 347 346 347 347 346 348 348 349 350 351 352 353 352 352 353
303 303 303 303 303 303 304 304 304 304 304 304 304 304 305 305 305 306 306 307 308 311 314 317 318 316 314 312 313 318 320 322 321 322 322 321 319 319 319 320 320 318 320 325 329 335 337 335 338 342 343 342 339 339 340 341 343 343 343 344 345 346 347 348 347 347 347 347 346 346 345 345 346 346 345 346 346 346 347 349 349 350 350 352 353 353 353 353
303 303 303 303 303 303 304 304 304 304 304 304 305 305 305 305 305 305 306 307 310 312 314 316 316 314 313 311 315 322 324 324 324 322 321 321 320 320 320 319 319 318 321 326 329 334 337 335 337 341 342 341 339 338 338 340 341 342 343 344 345 344 346 348 348 348 347 347 345 345 344 344 346 344 344 345 346 345 346 348 349 349 349 351 353 352 353 352
303 303 303 303 303 303 304 304 304 304 304 304 305 305 305 305 305 305 306 308 310 312 314 315 315 314 314 313 316 322 324 324 324 324 324 323 321 320 320 322 321 319 324 328 330 334 335 334 336 338 339 340 339 337 337 339 340 342 343 343 344 343 345 346 348 348 347 347 345 345 343 344 345 344 345 346 346 346 346 348 348 350 350 351 352 351 353 353
303 303 303 303 303 303 304 304 304 304 304 304 304 305 305 305 305 305 306 308 310 312 313 314 315 316 316 315 317 322 324 322 322 325 326 324 324 321 320 324 324 322 326 330 331 333 333 333 334 336 338 338 337 337 336 338 339 342 342 342 343 342 343 343 345 347 346 346 345 345 344 345 344 341 343 345 346 346 345 348 348 349 349 350 351 352 353 353
303 303 303 303 303 303 304 304 304 304 304 305 305 304 305 305 305 306 306 307 308 311 313 313 315 316 317 317 319 322 324 323 322 325 326 325 325 323 322 326 328 326 328 332 332 333 333 331 333 334 337 336 335 335 336 337 338 340 342 342 342 343 342 341 342 344 345 346 346 345 343 344 344 341 341 344 345 346 346 347 348 349 349 350 351 353 354 353
303 303 303 303 303 303 304 304 304 305 305 305 305 305 305 305 305 306 306 307 307 310 312 313 315 315 319 321 323 323 325 323 323 324 326 327 325 325 325 326 329 328 329 332 334 334 332 331 331 332 335 335 333 333 335 338 337 338 340 341 342 341 341 343 342 343 344 344 347 345 337 339 345 343 342 344 344 345 346 346 347 349 350 350 351 353 354 353
303 303 303 303 303 303 304 304 304 305 305 305 305 305 305 306 307 307 308 308 308 310 312 314 315 316 320 324 323 323 324 323 324 323 324 327 327 325 327 328 328 329 329 332 335 335 333 331 330 330 332 333 333 332 333 336 337 338 338 341 342 336 336 343 342 342 342 343 346 344 334 337 344 343 343 343 344 345 347 347 347 349 351 351 350 352 354 354
302 303 303 303 303 303 303 304 304 304 305 305 305 305 306 308 311 311 311 311 311 310 312 314 316 319 324 325 323 325 324 323 323 323 323 325 328 328 329 329 328 329 330 331 334 335 333 331 330 330 330 331 332 332 333 333 335 337 335 335 339 334 334 342 342 340 342 342 345 342 335 338 342 342 343 343 344 346 346 348 349 349 350 349 349 352 354 354
302 303 303 303 303 303 303 304 304 304 304 305 305 306 309 312 312 312 314 316 315 312 313 319 321 321 326 326 325 326 325 324 322 322 323 323 326 329 330 329 328 330 331 331 333 334 333 332 331 331 331 331 330 331 334 332 332 336 334 330 333 333 333 338 339 339 341 341 343 341 337 339 341 341 342 343 345 346 347 348 348 347 347 348 348 350 353 353
302 302 302 303 303 303 303 304 303 303 304 304 306 309 313 315 312 313 319 321 320 316 315 324 328 325 326 325 324 325 325 326 323 322 323 321 324 330 331 328 328 330 332 331 332 333 333 332 331 331 331 330 330 330 330 327 326 330 332 330 332 335 333 333 336 338 340 340 341 341 340 340 340 341 342 344 346 346 346 346 346 347 347 347 348 350 352 353
302 302 302 302 303 303 303 303 303 303 304 306 308 312 316 315 311 315 323 325 326 323 321 326 328 326 327 326 324 325 325 326 325 323 322 322 326 331 332 329 329 332 332 332 332 332 333 333 332 332 330 329 331 330 327 326 327 327 328 328 329 334 333 331 334 338 339 339 341 340 340 340 340 342 343 344 345 344 345 346 346 348 347 348 349 352 354 354
302 302 302 302 303 303 303 303 303 303 305 310 310 312 316 314 312 319 325 326 328 329 329 330 327 324 325 326 326 325 325 325 324 323 322 323 327 333 334 332 332 333 332 331 331 332 333 334 332 330 330 329 331 331 330 331 332 332 332 329 328 329 331 334 336 337 338 338 340 340 339 340 340 341 342 343 344 344 346 346 347 348 347 348 350 352 354 354
302 302 302 302 302 303 303 303 304 304 307 312 312 312 313 312 312 318 320 318 319 320 321 322 322 323 325 326 327 326 326 325 324 323 322 323 327 331 333 332 333 333 332 330 330 333 335 334 332 330 330 331 331 332 334 334 333 334 333 330 329 328 328 334 337 337 338 337 338 340 339 340 341 340 342 343 344 345 347 346 347 348 348 350 351 352 354 354
302 302 303 302 302 303 303 304 305 306 308 313 314 312 311 310 310 312 313 312 313 314 314 314 315 318 321 322 324 325 325 324 325 324 321 323 326 329 331 332 332 331 330 331 332 334 334 332 331 331 331 332 332 333 334 334 333 332 331 328 327 327 328 334 336 336 337 336 336 339 339 339 340 340 341 343 343 344 346 348 349 348 348 352 353 353 353 353
302 303 303 302 303 303 303 305 306 306 309 313 315 312 309 309 310 310 311 312 313 313 314 315 315 315 316 318 319 320 321 323 325 324 321 322 325 327 331 332 331 331 331 332 334 333 331 331 332 333 331 332 332 333 333 333 334 331 330 327 324 327 331 332 336 337 337 335 336 339 338 338 340 340 340 341 343 343 344 348 350 349 349 352 354 352 352 353
302 303 303 302 303 303 304 307 307 306 309 313 315 311 308 309 310 311 312 313 313 314 315 315 316 316 315 315 317 318 319 322 325 325 322 322 324 326 329 332 331 332 332 332 332 328 326 328 332 333 332 332 332 332 332 331 333 333 331 325 322 327 328 326 332 337 337 336 336 338 337 338 340 339 340 340 341 343 342 344 350 350 351 353 355 352 351 353
302 302 303 302 303 303 304 308 308 306 310 314 313 309 308 308 309 311 312 313 314 314 315 316 316 318 317 315 316 317 319 322 325 326 323 322 324 325 327 332 331 331 332 332 330 327 326 329 331 331 331 331 331 331 332 330 330 332 332 327 323 327 328 326 331 335 336 336 337 336 332 332 338 338 339 340 339 341 341 341 348 351 351 352 355 353 351 353
302 302 303 302 303 303 304 308 308 307 312 314 310 308 308 308 310 311 312 314 316 317 318 319 318 318 318 317 316 317 319 322 325 327 325 322 323 323 325 329 330 330 331 330 329 327 327 329 329 329 329 330 330 330 332 331 328 328 331 331 328 329 329 330 332 332 329 329 334 335 325 326 336 338 339 339 338 339 341 341 343 350 352 352 354 353 351 352
302 302 302 302 303 302 304 307 308 310 315 313 308 308 307 308 310 310 313 316 318 321 320 322 322 319 319 319 317 317 318 320 324 326 326 323 323 323 324 326 329 329 330 330 329 327 327 329 329 329 329 329 329 329 331 332 329 325 329 332 331 330 330 329 329 327 322 324 334 335 326 323 330 335 338 339 339 340 341 341 341 347 352 352 353 352 351 351
302 302 302 302 302 302 305 306 309 313 314 310 307 307 307 309 310 310 316 319 320 322 321 321 321 319 319 320 318 317 318 319 322 324 327 325 323 323 323 325 327 327 329 330 326 326 328 328 328 330 331 329 329 328 331 333 328 325 330 331 330 330 329 329 328 325 324 327 331 334 331 324 324 331 338 339 339 340 341 341 341 342 346 349 351 351 351 351
302 302 302 302 301 304 307 307 310 314 311 308 308 307 308 309 309 311 317 320 322 321 322 320 320 320 320 321 319 318 320 321 322 322 325 326 324 324 322 323 326 326 329 328 323 326 329 327 327 329 330 329 329 329 331 333 329 328 331 330 329 329 328 329 327 324 326 325 322 327 330 325 321 329 339 339 337 340 340 340 341 342 342 343 346 348 350 351
302 302 302 302 301 305 307 308 311 312 309 308 308 307 308 309 310 312 316 319 320 319 322 319 320 321 321 321 319 319 320 322 323 322 324 326 325 324 323 323 324 325 327 327 326 328 329 329 328 328 329 328 329 330 331 331 330 329 330 329 329 329 328 328 326 323 323 321 318 322 326 322 320 326 333 335 333 336 340 339 340 342 342 341 342 346 348 349
302 302 302 302 302 304 307 311 312 310 308 308 308 308 309 310 312 314 317 321 318 318 322 320 320 321 322 321 320 320 320 320 323 324 324 326 326 325 324 323 324 324 326 327 327 328 329 330 329 328 329 330 330 330 330 330 329 329 329 328 327 327 327 326 325 323 319 317 318 321 324 322 320 323 330 333 334 337 338 339 340 340 342 342 341 346 348 349
302 302 301 303 305 305 308 312 310 307 308 308 308 309 310 311 311 312 316 320 316 318 322 320 319 320 320 321 321 321 321 320 322 324 324 325 326 326 326 324 323 323 324 325 326 327 328 329 329 329 329 330 330 329 329 329 329 328 328 326 322 321 322 321 320 320 316 315 318 321 324 322 318 322 330 334 337 338 338 338 339 340 341 342 341 345 350 349
302 302 302 305 307 308 310 311 308 307 308 308 308 310 310 311 311 311 314 315 314 316 318 317 316 317 318 320 321 322 322 321 321 322 324 325 325 326 325 324 323 320 318 320 323 325 326 328 329 330 329 330 330 328 328 328 328 329 327 323 318 316 317 318 317 316 314 315 319 322 322 320 319 325 331 335 336 337 338 339 339 339 341 342 341 342 349 350
302 302 305 308 310 311 311 309 307 307 308 308 309 311 311 310 311 311 312 313 314 314 314 314 314 315 317 319 321 322 323 323 322 322 325 325 325 326 326 325 325 321 319 320 321 320 323 326 328 329 330 330 330 327 324 324 327 327 324 320 316 315 317 318 318 317 316 316 318 322 321 318 319 326 333 334 334 336 337 338 338 339 340 342 343 343 346 351
302 304 309 311 311 311 310 307 307 307 307 308 309 310 310 310 310 311 311 312 312 312 312 312 313 315 318 320 321 322 322 324 323 322 324 325 325 325 326 326 325 325 324 321 320 319 319 321 325 328 328 329 330 329 327 327 327 327 327 324 319 318 318 318 318 317 317 317 318 320 320 317 318 325 332 333 333 335 337 338 338 339 341 342 345 346 345 349
304 308 312 313 311 310 308 306 307 307 308 310 310 309 310 310 310 310 310 309 310 311 310 311 313 315 317 320 321 322 322 323 323 324 324 324 324 325 326 326 325 326 325 320 320 322 318 320 326 328 329 330 329 329 331 330 326 327 328 324 319 321 322 319 318 318 317 317 317 318 318 321 324 329 332 331 331 334 334 337 338 339 342 343 344 346 343 345
306 311 314 314 311 309 307 306 307 308 309 311 310 309 309 310 310 308 308 309 308 309 310 311 313 314 316 319 320 321 321 321 323 323 323 324 325 325 326 327 326 327 326 323 323 323 318 320 328 329 328 330 329 329 331 329 325 326 324 320 322 326 325 319 318 320 318 316 317 318 318 322 325 327 330 332 331 332 333 334 336 339 342 342 343 346 343 343
307 311 314 314 311 309 307 307 308 309 311 311 310 310 310 310 310 308 309 309 308 309 309 310 312 313 313 315 316 317 317 318 321 321 322 323 323 325 326 327 327 327 327 326 325 326 322 321 328 330 327 329 331 329 330 331 329 326 321 322 326 327 326 323 319 319 318 316 317 317 317 318 319 321 329 332 331 331 333 332 334 337 341 342 342 345 344 342
309 311 314 314 311 308 307 308 309 310 311 311 310 310 309 309 309 309 309 309 308 309 309 309 310 311 311 311 312 314 313 315 317 318 322 323 322 325 326 327 327 327 328 327 326 329 327 320 325 331 328 329 331 330 328 329 331 328 325 327 326 321 320 321 319 319 319 318 318 318 318 319 318 321 327 330 331 332 334 333 333 335 338 340 341 345 345 341
311 313 313 312 309 308 307 308 310 311 311 310 309 309 309 308 308 309 309 308 308 308 308 309 309 309 309 310 311 312 312 314 315 315 319 323 323 324 324 324 327 327 327 328 327 328 328 322 321 329 330 328 329 328 324 325 329 329 329 329 327 323 321 321 320 320 319 319 320 319 318 318 322 327 329 331 333 333 333 336 335 334 336 340 342 345 345 341
312 313 312 310 308 308 307 309 311 310 310 309 309 309 308 308 309 309 308 308 308 308 308 308 309 309 309 310 310 311 312 313 315 314 316 321 322 322 321 321 323 325 324 326 328 328 329 325 320 327 331 326 325 327 326 326 327 326 324 324 325 324 324 323 322 320 320 320 319 320 318 318 326 334 333 333 335 334 335 337 337 334 335 340 342 344 343 341
312 313 312 310 308 307 308 310 311 310 309 309 309 308 308 308 309 308 308 308 308 309 309 308 308 308 309 310 310 311 313 312 313 314 315 318 320 320 320 320 320 322 323 326 328 327 328 326 321 323 325 322 324 329 329 329 328 326 324 323 324 324 322 320 320 320 319 319 319 319 317 319 328 335 334 334 335 334 334 335 336 336 334 339 344 344 342 342
312 312 311 310 309 308 308 310 310 309 309 308 308 308 308 309 308 308 309 308 308 309 309 309 308 308 308 309 310 310 311 312 312 313 314 315 317 318 320 321 320 321 324 325 328 328 329 328 323 321 324 326 328 330 329 329 330 329 327 327 329 326 321 317 317 319 319 318 319 319 317 321 331 337 334 335 336 334 334 335 335 335 334 336 340 342 344 342
312 312 311 310 309 308 308 310 310 309 309 309 309 308 308 309 308 308 308 308 308 308 309 308 308 309 309 309 310 310 310 311 311 312 314 315 316 317 319 321 320 321 322 324 327 329 330 328 324 322 327 332 331 329 329 329 330 328 326 328 329 327 325 323 322 323 320 317 318 317 316 322 332 338 335 334 335 334 333 334 335 335 335 336 337 341 344 343
311 312 312 309 308 308 309 309 308 308 309 309 309 309 309 308 308 308 308 308 308 307 308 308 308 309 309 309 309 309 310 311 312 313 315 316 316 316 319 319 319 320 320 322 324 325 327 329 325 322 325 328 326 325 326 327 327 327 327 328 328 328 329 326 325 326 321 319 319 317 316 321 332 340 336 333 333 333 334 334 334 334 333 334 334 337 344 343
311 312 311 309 309 308 308 309 308 308 308 308 308 308 308 308 308 308 308 308 309 308 308 308 308 309 309 309 309 309 309 311 311 312 315 315 315 316 317 318 318 319 320 321 322 323 325 329 328 323 323 323 321 320 321 323 326 326 327 328 327 328 328 325 323 321 320 323 323 318 317 323 333 337 334 332 331 333 335 333 333 336 338 341 343 343 345 343
311 310 309 309 309 308 308 309 308 308 307 307 308 308 308 308 308 308 308 308 309 308 308 308 308 309 309 308 309 309 309 310 310 313 314 314 314 315 316 317 316 319 322 321 322 323 325 328 329 328 326 324 325 328 328 328 325 323 325 326 326 327 328 327 322 318 322 324 322 323 326 326 331 335 333 332 332 333 335 333 336 343 345 346 350 349 348 345
309 309 309 309 308 308 309 308 308 308 308 307 307 308 308 308 308 308 308 308 309 309 308 308 308 309 309 308 308 309 310 310 311 313 313 313 313 313 314 315 316 319 321 322 322 323 324 326 328 331 329 329 334 336 333 331 328 323 324 325 325 327 328 326 322 322 329 324 319 332 341 330 329 335 334 333 335 336 335 333 338 343 342 342 345 346 346 345
308 308 309 308 308 309 308 308 308 308 308 307 308 308 308 307 308 308 307 308 309 309 308 308 308 309 309 308 308 309 310 311 311 312 312 312 312 312 313 314 315 317 318 319 321 323 323 324 327 328 328 329 333 334 332 332 331 328 327 325 325 327 326 325 324 326 332 325 322 337 343 332 331 334 332 333 337 337 336 335 337 339 337 338 340 342 343 343
307 308 308 308 308 308 308 308 309 308 307 307 307 307 308 308 308 308 307 307 308 309 309 308 308 308 308 308 308 309 310 310 311 311 311 311 311 311 313 313 315 316 315 316 321 323 323 324 327 328 327 328 330 331 331 332 330 329 330 328 327 328 326 326 327 329 331 330 330 336 337 334 333 333 331 333 335 335 335 337 336 336 336 336 336 338 340 341
306 306 307 306 306 307 308 309 308 308 307 307 307 307 308 309 308 307 308 307 307 308 308 308 308 308 308 308 309 309 309 310 310 310 310 310 310 311 312 312 313 313 313 315 319 321 322 324 328 328 326 326 328 330 330 331 330 328 328 330 329 328 326 326 327 328 330 330 331 334 336 336 335 336 336 336 336 336 337 338 336 334 335 335 334 334 336 339
304 304 305 305 305 307 308 309 309 308 307 307 307 307 307 307 307 307 307 308 308 308 307 307 308 307 308 308 308 308 310 310 310 310 310 310 310 310 311 311 311 311 312 314 316 318 321 323 326 327 324 324 327 329 329 330 330 326 325 329 329 327 326 327 327 328 329 329 329 329 330 333 337 338 337 336 336 336 337 337 335 333 333 333 333 334 334 337
303 303 304 304 305 307 307 308 309 308 308 307 306 307 306 306 307 308 307 308 309 308 307 308 308 308 307 308 308 308 310 310 309 309 309 309 309 309 309 310 311 311 312 313 315 317 319 321 323 324 322 323 326 328 328 328 326 323 325 329 330 329 330 328 328 330 330 330 329 326 328 336 340 338 336 335 335 336 335 335 334 334 334 333 333 333 333 334
Wind_Speed
22 22 22 22 23 23 23 23 23 23 23 22 22 22 22 22 22 22 22 22 21 20 19 18 18 17 16 16 17 18 18 21 20 21 27 23 16 15 14 16 14 10 15 20 15 12 14 17 18 18 18 18 18 17 16 15 14 10 5 5 5 4 4 5 6 6 8 5 3 7 7 7 7 10 13 13 16 19 20 16 14 18 21 22 27 32 34 33
22 22 22 22 23 23 24 24 25 24 24 24 24 24 24 24 23 22 22 22 22 21 19 18 17 16 15 15 16 17 18 19 21 28 32 21 14 16 13 16 18 13 14 20 19 17 18 18 19 19 19 18 17 16 15 14 14 10 5 6 5 2 4 6 8 8 7 10 6 6 6 5 9 9 10 10 13 15 15 15 16 21 24 26 32 33 33 34
21 22 22 22 22 23 24 24 25 25 25 25 26 26 26 25 24 23 22 21 21 21 19 17 16 15 14 13 14 15 16 17 22 32 32 22 20 19 13 13 18 18 16 17 19 20 18 17 18 19 20 17 16 17 15 13 13 11 8 6 4 3 4 7 10 12 8 9 11 2 7 5 8 9 7 8 12 14 11 12 17 22 26 29 33 33 33 33
22 22 22 22 22 23 24 24 25 25 25 26 26 27 27 26 25 24 22 21 20 20 19 16 15 13 12 12 12 11 12 14 18 22 19 16 19 19 15 12 13 17 16 15 18 20 18 17 17 20 19 15 16 17 14 14 11 10 10 6 4 4 3 8 8 12 15 8 7 9 5 6 7 9 7 9 8 9 12 14 16 22 28 31 33 33 32 32
22 22 22 23 23 24 24 24 25 25 25 26 26 27 27 27 26 24 23 21 19 19 19 16 14 12 11 11 10 7 6 7 4 4 7 10 12 18 20 17 15 15 13 15 19 20 19 19 18 20 18 13 15 15 14 17 14 8 10 8 10 8 4 5 5 10 23 14 6 6 4 1 6 8 6 11 6 2 12 17 18 24 29 32 33 32 32 32
23 23 23 24 24 24 24 25 25 26 26 26 26 27 27 27 26 25 23 22 19 19 18 16 13 10 10 10 10 6 5 5 3 5 2 2 5 14 19 20 20 18 15 17 20 21 21 21 20 20 17 12 13 13 14 19 16 9 10 10 13 11 6 5 7 13 23 14 7 2 2 6 3 5 4 13 11 7 13 19 22 25 29 31 31 31 31 32
24 24 24 25 25 25 25 26 26 26 26 26 27 27 27 26 25 24 24 23 20 18 17 15 12 10 10 9 11 9 13 17 8 3 4 3 4 8 16 19 20 21 21 21 23 23 22 23 22 20 15 11 14 15 15 18 18 12 10 12 12 13 12 14 12 12 16 14 5 7 12 11 6 6 5 11 13 12 17 22 25 26 28 29 29 29 30 32
25 25 26 26 26 27 27 27 27 27 27 27 27 27 27 26 25 24 23 22 20 18 15 14 10 10 9 9 10 10 20 25 14 12 14 10 8 6 10 16 22 24 25 25 25 23 23 23 23 20 14 12 14 15 17 16 15 15 12 13 10 11 15 18 12 8 12 15 9 6 9 11 10 7 5 8 12 12 17 23 26 26 27 28 28 29 29 30
27 27 27 27 28 28 28 28 28 27 27 27 28 28 27 26 25 23 22 21 19 17 14 12 10 9 9 11 11 11 21 22 13 15 16 11 11 10 8 10 21 27 27 26 25 23 23 22 23 21 15 14 16 15 18 15 11 13 16 16 12 12 13 15 13 12 16 17 11 9 8 7 13 12 6 11 13 13 18 22 23 25 27 28 27 27 28 29
28 28 28 28 28 28 28 29 28 28 28 28 28 28 28 27 25 23 21 20 18 17 14 11 9 9 10 11 11 11 15 12 9 17 16 11 13 15 14 9 15 26 28 25 26 25 24 21 21 22 17 16 16 16 18 15 11 14 17 17 16 15 13 13 16 20 20 17 13 11 9 8 15 14 7 13 16 14 19 21 22 24 27 27 26 27 27 28
28 28 28 28 29 29 29 29 29 29 28 28 29 28 28 26 24 23 21 20 18 16 14 11 9 9 10 11 15 14 8 4 6 13 13 12 14 16 19 14 13 23 27 24 25 26 24 21 19 19 16 14 15 16 18 18 15 17 16 13 15 17 17 16 15 17 15 13 14 13 10 10 12 11 8 15 18 16 20 21 22 23 24 26 25 27 27 27
28 28 28 28 28 29 29 29 29 29 29 28 28 28 27 26 24 23 20 19 18 16 14 11 9 10 9 13 25 23 8 4 5 9 11 13 14 16 19 17 15 20 24 23 24 24 23 21 20 19 15 13 14 12 14 19 21 19 16 12 12 14 16 18 16 15 13 10 13 13 10 10 10 10 9 17 20 18 21 22 22 21 23 25 24 26 26 26
28 28 28 28 28 29 29 29 29 29 30 29 28 28 27 25 23 22 20 19 18 16 13 10 10 10 9 16 27 22 9 10 10 10 11 12 15 17 18 18 18 20 21 22 21 22 23 21 21 22 19 16 13 12 9 12 18 17 14 11 10 11 12 15 16 17 15 12 14 13 8 8 10 12 11 16 21 20 22 22 21 21 22 23 24 25 26 26
28 28 28 28 28 29 29 30 30 30 30 29 29 28 26 24 22 20 19 19 16 14 11 9 8 7 11 19 23 15 11 14 16 17 14 12 15 18 20 19 19 20 20 21 20 20 21 21 22 21 21 19 16 16 13 9 11 13 12 10 9 9 8 12 15 17 16 14 18 15 7 7 10 14 16 16 21 21 21 21 20 21 21 22 22 23 25 25
28 28 28 28 28 29 29 30 30 30 30 29 29 27 24 23 20 18 18 18 15 12 8 6 5 6 12 23 24 13 15 19 21 23 20 16 16 18 22 21 21 22 20 21 20 18 19 20 22 20 19 21 19 16 12 10 9 9 10 10 10 10 9 12 17 19 17 14 19 17 8 7 9 12 19 18 21 22 20 20 18 18 19 20 21 21 22 24
28 28 28 28 28 28 29 30 30 31 30 30 30 25 20 20 20 19 19 15 12 8 4 2 2 4 9 14 13 9 17 25 24 23 23 21 19 19 20 22 22 22 21 20 19 18 18 20 22 21 18 17 15 12 9 9 9 9 10 10 11 12 9 11 15 20 20 14 16 16 10 7 7 10 19 21 20 21 20 21 20 20 21 21 21 22 22 23
28 29 29 29 28 28 29 29 30 30 29 30 29 23 17 18 22 19 13 10 8 4 4 2 2 7 13 11 7 10 17 24 23 20 23 23 21 20 19 22 23 22 22 20 20 19 19 20 19 17 16 13 11 11 10 10 10 9 10 10 11 13 11 10 11 15 21 16 15 17 12 9 7 8 17 21 20 19 19 23 23 20 20 21 22 22 22 23
29 30 30 30 28 28 28 29 29 28 27 28 25 20 16 19 24 16 8 9 10 5 4 6 5 7 13 14 14 13 11 17 22 20 22 23 22 21 20 21 22 22 22 19 21 22 19 19 15 11 12 12 12 12 12 12 11 10 11 10 11 13 13 13 12 10 17 17 15 16 14 12 10 9 14 16 19 20 18 19 24 21 19 20 23 23 23 24
31 32 31 31 30 28 28 28 27 26 26 24 24 21 16 21 23 10 6 7 7 5 6 7 13 8 10 13 15 14 9 10 19 20 22 24 22 22 21 20 21 23 21 15 18 22 17 13 13 11 12 14 15 15 15 15 14 13 14 12 11 12 13 15 13 10 13 15 15 16 14 14 13 12 14 15 20 21 16 15 23 25 21 20 24 23 23 25
33 33 33 32 31 29 28 27 24 25 25 22 26 23 18 23 18 6 7 14 18 18 22 20 20 22 24 24 17 10 8 8 15 20 23 24 22 23 23 22 22 21 18 14 14 20 17 11 12 15 15 17 20 20 19 18 17 17 15 13 14 13 12 15 14 11 13 13 14 16 15 15 14 13 15 17 20 17 18 18 21 24 21 20 23 24 23 24
33 34 33 33 32 30 28 25 22 24 24 21 23 20 18 22 14 11 21 27 25 23 29 33 30 31 34 33 27 15 9 9 16 20 22 25 24 22 22 23 19 15 16 17 14 17 16 13 16 19 19 20 20 21 21 19 20 19 15 13 14 13 12 15 15 14 16 12 12 16 16 15 15 14 13 17 18 16 17 21 22 23 23 23 24 23 23 22
34 34 33 33 33 31 28 22 21 23 22 20 18 16 17 19 14 15 22 24 29 28 28 33 34 36 37 37 36 28 19 16 18 21 23 28 26 21 21 22 17 13 16 17 13 13 14 16 19 21 19 19 19 20 22 21 20 17 14 12 11 11 12 14 16 15 15 10 10 15 16 14 15 16 15 16 16 15 18 20 28 30 25 26 27 25 24 24
34 33 33 33 32 32 26 18 20 23 20 18 15 15 18 19 17 19 19 19 30 32 28 32 35 36 37 35 34 30 23 19 18 22 27 29 28 25 21 19 17 16 17 17 15 13 12 15 19 20 18 20 21 20 22 20 16 14 13 12 11 12 11 10 14 16 14 10 9 13 14 12 14 15 15 19 20 19 20 19 31 39 29 27 30 27 28 28
34 34 33 33 32 32 25 15 17 21 17 13 13 16 20 20 18 20 21 18 20 24 28 33 33 34 35 32 29 29 26 22 20 22 29 31 30 26 20 19 19 17 17 20 22 18 15 14 16 20 21 21 21 20 20 16 13 15 16 14 12 13 14 11 11 14 14 12 11 12 11 10 13 15 13 16 21 22 22 19 24 38 34 30 31 29 30 31
35 34 34 33 32 33 25 13 14 19 14 11 15 20 22 21 19 19 19 14 12 17 24 25 25 29 33 27 24 26 24 23 25 23 28 34 32 23 18 20 18 15 19 24 22 19 18 16 17 21 21 22 21 19 20 16 11 14 17 19 17 15 16 15 13 12 11 12 14 13 10 7 11 17 15 14 16 16 20 20 20 32 34 30 30 30 30 31
34 34 34 32 30 33 26 14 15 18 14 13 19 23 22 20 19 19 14 9 9 11 11 12 14 16 21 23 24 24 18 21 28 26 26 34 34 25 17 16 14 16 20 20 15 11 14 19 18 19 21 23 21 17 19 19 12 11 14 19 21 18 16 17 16 12 9 10 14 16 12 7 10 16 17 16 15 14 18 19 20 28 33 30 30 30 30 30
33 33 33 30 27 28 24 18 18 18 15 17 22 24 23 20 19 19 10 6 6 2 5 7 8 5 11 21 26 22 10 12 25 30 29 32 35 29 19 15 14 14 15 12 11 10 14 21 21 19 20 19 18 15 18 20 14 10 12 17 21 20 18 17 16 13 9 9 13 17 15 8 8 12 15 18 18 16 16 16 17 24 30 31 31 30 29 29
31 31 31 29 25 20 19 21 18 15 17 20 24 23 21 22 20 15 6 5 4 4 7 4 2 1 3 15 28 25 10 7 16 27 33 31 34 31 20 19 17 16 18 14 12 13 16 21 22 21 19 14 14 16 17 20 15 11 13 14 17 20 19 17 14 11 10 10 10 15 17 10 8 9 12 18 19 16 16 17 16 20 27 30 31 33 31 30
29 30 29 28 24 17 15 17 15 15 20 23 24 23 22 22 17 9 4 6 6 4 2 2 2 1 3 10 23 25 17 10 8 20 33 32 34 30 18 20 21 17 21 20 15 13 14 20 22 20 16 13 14 17 19 19 15 13 15 14 13 16 17 16 13 10 10 11 11 14 15 11 8 9 12 15 17 17 17 16 15 18 28 29 28 33 34 30
27 27 26 26 24 18 13 12 13 17 22 23 23 24 23 18 10 6 6 6 5 8 8 3 6 5 4 9 15 19 18 17 12 16 31 30 34 33 22 22 22 16 17 20 19 16 16 19 21 18 16 13 15 17 18 19 17 14 14 13 10 10 12 12 11 10 9 10 12 16 15 11 8 8 10 12 13 16 16 13 14 17 25 29 27 30 34 30
25 23 22 21 19 17 13 12 17 21 22 22 23 24 20 11 6 7 6 5 6 12 14 10 17 19 10 7 9 15 17 17 16 14 21 21 25 26 19 17 17 14 13 15 17 18 19 18 15 16 20 18 15 16 17 19 18 14 11 11 9 8 8 8 9 10 11 10 12 16 17 14 11 9 10 11 11 15 15 12 17 20 23 28 27 29 35 32
23 21 18 16 15 13 11 13 20 23 22 21 22 20 13 7 5 7 7 9 7 9 15 15 20 22 19 18 12 13 15 14 16 15 14 15 16 17 17 14 12 12 13 13 14 16 18 18 15 16 22 22 16 13 14 16 16 13 11 11 10 8 7 7 8 9 11 10 11 16 18 15 13 10 13 15 11 14 15 14 18 19 22 27 27 28 35 35
23 19 11 13 15 10 9 16 21 22 21 20 19 14 8 6 6 8 11 9 8 13 17 19 22 23 20 17 12 11 12 13 16 17 15 17 16 16 21 21 17 15 12 12 13 12 13 17 20 18 17 22 19 12 11 13 14 14 12 11 10 8 8 9 9 8 10 10 12 16 16 14 12 11 15 19 14 13 18 21 20 18 23 27 27 27 30 34
23 15 9 13 15 10 11 18 20 19 19 18 14 9 6 7 8 9 11 8 13 17 18 20 23 24 19 13 10 11 10 10 14 16 15 16 15 14 18 22 25 19 11 11 12 12 13 13 19 20 13 18 22 16 13 13 13 14 13 11 10 9 8 8 8 9 9 9 13 16 13 11 10 9 13 18 17 16 17 22 24 24 27 27 27 28 28 33
20 12 11 14 12 10 14 18 17 16 17 15 10 6 6 7 5 7 10 12 14 16 19 22 20 18 16 12 11 12 11 9 13 15 12 13 14 13 15 18 24 21 13 11 9 11 16 12 16 22 17 18 21 18 16 15 13 12 12 12 11 10 9 7 8 11 10 8 10 12 10 9 9 8 12 16 18 21 19 18 21 25 30 29 28 31 30 32
17 11 12 12 8 10 16 17 15 14 13 10 6 4 6 7 7 9 11 14 15 16 20 19 13 11 12 10 9 10 10 10 11 13 12 14 15 16 16 14 20 23 17 12 8 9 14 12 15 22 22 21 21 20 19 16 10 10 12 13 12 12 11 7 8 11 11 9 8 8 9 9 9 10 12 15 16 20 21 19 20 20 31 31 29 34 33 31
18 15 14 9 8 14 18 14 12 13 12 7 4 5 7 9 10 10 10 14 16 17 17 13 9 10 11 10 10 14 18 16 13 12 12 14 13 17 20 16 19 25 22 17 11 9 11 10 14 22 24 23 21 22 22 20 13 9 12 13 11 12 12 7 6 8 9 9 7 10 13 11 10 8 10 15 16 17 20 20 20 17 27 30 30 36 37 31
21 22 16 8 8 16 16 13 12 13 11 6 4 5 6 8 11 11 11 14 14 13 12 10 9 11 13 12 13 18 20 15 14 15 10 13 10 12 14 14 17 23 28 25 15 10 12 10 13 21 24 21 20 19 18 20 20 14 11 13 11 10 11 8 7 7 8 8 6 9 12 10 10 9 10 16 17 15 16 19 20 18 19 26 31 37 38 31
21 23 12 2 10 17 15 14 14 13 10 6 5 5 5 7 10 12 13 13 12 10 10 10 10 11 13 14 14 17 18 14 15 15 10 8 5 2 8 7 7 9 15 21 17 12 12 9 9 18 23 20 15 14 14 16 20 17 12 13 11 9 9 9 8 6 7 7 6 8 9 8 8 9 11 14 16 16 16 14 18 19 16 21 30 35 35 30
20 18 6 9 13 17 18 17 15 10 6 5 6 6 8 8 10 12 13 11 9 8 8 11 12 12 13 15 15 14 14 15 16 13 11 11 6 10 16 15 11 12 13 13 14 14 12 10 9 12 20 20 13 13 16 15 16 15 13 12 12 9 8 9 8 8 7 6 5 6 7 7 7 9 13 13 14 16 14 12 13 17 18 21 30 33 33 31
19 13 8 14 16 19 21 18 10 4 5 5 5 6 9 9 10 13 12 11 10 8 9 11 12 11 12 13 12 12 12 12 14 13 11 12 12 10 13 17 16 14 13 11 8 11 11 9 10 10 13 17 16 17 20 20 19 16 12 11 12 11 10 9 9 10 8 7 5 5 5 4 3 5 10 12 13 15 13 13 12 17 21 23 31 35 36 36
18 11 13 16 14 18 20 13 4 3 5 6 7 9 10 9 11 12 11 11 10 8 8 10 10 11 12 11 11 12 11 12 13 13 13 13 17 15 15 20 21 17 12 8 7 10 11 8 9 10 10 13 19 22 21 22 22 19 15 13 12 12 11 10 8 8 9 9 8 7 5 1 4 3 4 5 7 13 14 12 11 17 22 24 31 37 40 40
18 16 18 13 13 17 15 8 5 6 6 8 11 12 12 10 10 11 11 10 9 8 8 8 10 12 11 11 12 12 11 12 11 12 15 15 16 20 23 22 20 17 11 7 7 7 8 8 9 8 8 11 16 21 20 21 20 17 16 16 13 13 13 11 8 7 8 10 9 7 6 2 5 4 3 4 2 10 15 13 12 15 18 21 27 34 40 41
22 24 22 14 17 17 12 6 6 6 7 10 11 12 12 10 9 10 10 10 9 8 8 8 10 12 12 12 12 12 11 10 9 10 12 12 16 27 32 27 22 16 9 8 9 8 5 6 9 7 6 9 13 16 16 17 17 13 14 18 18 17 18 14 10 8 7 10 12 8 6 4 6 5 5 4 2 6 13 14 16 17 16 18 21 29 39 43
21 20 19 18 20 16 10 8 8 6 8 11 12 13 11 8 8 8 10 12 10 9 8 9 12 13 12 12 12 12 10 9 10 10 10 9 15 24 28 32 30 18 9 14 15 11 7 6 7 8 10 11 12 12 12 14 14 12 14 21 23 22 21 15 9 8 8 9 11 9 6 6 9 5 4 6 7 6 9 12 14 15 11 4 8 25 38 43
17 12 12 17 21 17 12 13 13 9 8 10 9 11 11 9 8 8 9 10 8 9 10 11 13 13 11 12 13 11 10 11 11 8 10 11 12 15 26 35 33 24 20 20 17 11 6 7 9 10 12 9 5 4 4 8 13 16 19 22 24 24 22 15 10 9 7 7 9 8 5 9 11 8 7 8 7 6 10 12 9 15 20 15 18 25 28 34
13 9 11 13 15 15 14 16 16 12 12 12 7 9 12 11 9 7 7 7 6 8 10 9 9 11 11 13 13 11 11 12 10 9 11 12 11 16 28 31 26 28 33 21 15 8 5 8 11 14 16 11 5 2 4 6 7 17 23 23 24 26 24 17 12 11 8 7 9 7 7 10 11 10 11 9 5 5 10 13 11 18 22 17 20 26 24 23
10 11 16 15 10 9 11 14 17 16 17 14 8 10 13 12 10 8 7 8 6 4 5 7 8 10 12 13 12 10 12 11 9 9 10 11 13 15 21 23 21 27 31 18 10 6 5 8 11 14 17 16 14 11 6 8 9 9 17 23 24 25 26 22 16 14 11 7 7 8 7 8 10 11 13 12 7 5 8 11 14 18 17 13 15 20 23 20
11 11 14 15 11 12 15 18 20 18 16 12 8 9 11 9 11 11 8 9 9 4 3 6 10 11 12 12 10 9 9 9 9 9 9 11 13 11 12 15 19 24 26 17 9 6 3 6 10 13 16 17 17 15 12 9 11 13 13 21 25 23 25 24 19 17 15 9 9 10 6 5 10 11 11 13 12 11 16 17 15 13 11 13 13 14 18 20
12 11 12 14 13 16 18 18 17 14 12 11 9 8 9 9 11 12 10 10 10 6 5 9 12 13 12 12 11 10 9 9 11 11 10 10 10 9 7 8 13 20 22 16 10 10 6 6 9 10 11 13 16 17 15 12 11 13 15 16 22 23 25 24 20 19 15 11 12 13 9 6 8 9 9 11 10 11 15 15 16 14 10 13 12 6 9 20
15 16 16 13 10 10 13 14 13 10 8 9 9 8 9 11 13 13 12 12 10 7 9 13 12 11 13 13 13 13 11 10 12 13 13 13 11 9 8 10 14 17 16 14 12 11 8 7 7 8 8 9 11 16 17 11 8 11 16 17 15 16 19 21 19 17 15 14 14 13 12 8 7 11 11 10 9 10 10 10 11 12 9 8 7 6 9 11
18 19 18 13 8 7 10 11 11 9 7 8 11 12 12 13 16 15 11 9 8 7 11 16 13 9 10 12 13 15 15 13 14 16 16 17 17 16 14 18 21 17 12 12 12 9 9 9 6 6 7 9 11 14 15 8 4 9 13 12 8 8 13 18 20 19 17 15 13 9 8 9 8 11 11 9 9 9 6 6 8 8 8 6 5 6 4 3
Wind_Direction
359 357 354 351 349 346 343 341 339 338 335 332 328 324 320 316 314 312 310 307 305 304 303 304 304 304 302 301 297 293 293 287 284 276 266 265 268 264 249 236 234 230 225 223 217 208 205 205 208 209 210 216 222 228 232 228 226 228 234 242 247 256 272 302 305 311 315 311 138 135 134 146 131 114 128 128 122 131 143 141 143 146 142 145 144 144 146 149
357 355 352 349 348 345 342 340 338 337 335 334 330 326 323 320 319 316 313 309 306 304 302 302 302 303 303 301 297 296 295 291 290 273 258 252 261 262 249 232 222 214 217 217 210 204 205 205 205 206 209 217 218 219 229 224 218 223 229 245 240 224 288 313 302 305 312 295 297 135 158 156 122 121 145 140 123 132 135 122 118 126 132 137 142 146 148 150
357 355 352 350 348 344 342 339 338 336 334 333 329 326 325 323 323 321 317 312 308 306 302 300 299 301 301 298 296 297 301 303 292 275 264 255 249 247 239 223 213 210 217 214 205 206 209 208 205 204 208 218 220 214 221 218 209 216 227 247 228 202 278 277 282 306 304 288 305 259 161 149 130 139 163 145 132 137 132 124 124 128 134 139 144 149 151 153
358 356 353 351 349 347 344 341 339 337 335 331 328 326 323 324 325 324 322 316 311 307 303 299 296 296 296 294 292 297 309 308 288 275 273 260 236 226 218 205 201 205 212 211 205 209 212 212 208 206 210 219 223 217 220 218 207 207 223 233 184 179 239 260 283 308 286 248 257 265 154 146 154 149 167 144 136 142 136 139 136 136 142 145 149 152 155 157
358 356 354 352 350 348 345 343 341 339 337 333 329 325 322 323 323 324 325 319 313 308 305 299 292 291 286 283 284 290 308 306 293 261 262 255 227 216 217 211 210 211 208 206 209 213 212 213 209 207 213 223 225 220 223 220 214 218 234 214 159 170 208 252 270 278 275 253 204 302 22 207 177 153 163 127 128 175 134 142 141 142 147 149 152 154 158 160
358 356 354 351 350 347 345 343 341 340 340 336 332 326 323 323 321 323 323 321 315 308 305 299 292 285 274 272 271 245 238 268 64 53 298 250 227 213 213 215 214 215 212 208 212 214 209 211 208 207 213 224 228 223 223 218 216 226 240 223 175 181 192 185 228 254 270 259 159 125 232 247 194 152 165 128 155 189 141 143 143 145 149 150 154 157 161 164
357 356 353 351 349 347 345 342 341 341 341 338 335 330 326 323 321 322 321 322 317 310 307 300 293 278 266 257 256 228 231 249 236 258 290 338 302 213 200 207 207 205 204 208 216 212 207 210 209 208 211 221 231 228 228 219 219 227 238 241 200 186 186 176 209 251 271 263 202 178 186 199 187 160 180 147 155 159 141 142 143 147 151 152 156 161 166 167
356 355 353 351 348 347 345 342 342 341 340 337 335 332 329 326 322 321 320 320 317 314 308 301 292 273 261 239 243 236 238 250 251 249 262 287 286 203 180 195 197 195 197 207 215 210 207 212 210 209 213 220 228 229 232 226 220 226 235 249 226 206 201 182 200 249 264 260 256 235 195 191 180 157 210 172 137 135 139 139 143 150 154 156 161 165 168 169
355 355 353 351 348 347 345 343 343 342 340 337 334 332 331 328 324 321 319 319 318 316 310 302 290 268 257 234 235 247 248 262 278 248 243 271 264 216 197 196 193 191 194 207 214 212 210 213 212 211 219 225 229 232 232 231 223 220 229 240 237 234 214 179 189 228 241 243 240 239 232 205 155 139 227 196 150 142 142 142 148 153 157 159 164 167 168 171
354 355 353 351 349 347 345 344 344 343 339 337 335 333 331 329 324 321 319 318 318 315 310 300 287 267 258 236 228 249 259 272 264 233 228 244 248 224 215 212 200 194 195 209 214 213 213 214 215 215 227 233 233 239 235 234 231 226 230 236 239 247 239 204 198 213 227 233 233 234 236 215 162 155 210 187 163 154 145 149 157 157 159 161 165 168 168 172
354 354 353 352 349 347 347 346 346 343 340 339 336 334 332 330 326 322 318 317 316 314 310 297 287 272 257 230 226 239 254 272 213 210 214 215 222 223 215 210 209 199 197 210 215 213 215 215 216 217 225 235 240 245 242 242 243 237 235 236 240 247 249 238 223 217 225 228 228 236 239 229 193 186 199 170 165 162 153 154 160 161 161 163 167 167 169 174
353 354 353 352 350 347 347 347 346 344 342 341 338 335 334 332 328 323 318 316 313 311 307 294 282 269 247 226 234 235 216 217 215 201 207 205 213 224 217 205 205 203 200 210 216 214 215 217 219 222 222 228 240 246 244 242 244 242 237 238 240 243 243 239 235 224 225 227 221 230 241 233 213 210 201 170 166 167 161 157 161 164 161 164 167 166 170 175
352 353 353 353 351 347 347 348 346 344 343 342 340 338 335 332 329 323 319 316 312 311 306 290 280 264 230 233 246 247 222 210 218 223 223 214 216 220 216 209 205 207 207 214 218 215 217 219 222 228 231 232 235 241 255 248 244 244 236 236 237 239 239 234 237 230 224 226 218 222 232 223 212 211 205 172 167 170 161 159 166 166 162 165 166 166 171 175
352 352 353 353 352 348 347 348 347 345 345 344 341 340 337 334 330 325 321 316 310 309 306 292 281 242 220 247 262 260 238 228 226 228 226 218 217 212 210 211 210 211 212 217 221 218 218 222 226 232 234 238 241 243 254 254 242 241 232 231 235 238 236 223 229 231 226 218 213 222 232 223 216 205 201 179 170 172 162 161 168 165 164 165 167 169 173 178
351 352 352 354 353 349 348 348 348 347 346 345 344 343 338 331 330 329 323 316 308 303 303 301 270 211 234 266 278 265 227 229 232 226 219 217 216 209 206 208 211 211 212 218 222 221 220 220 224 231 232 235 244 247 246 241 229 231 228 224 225 234 242 227 219 217 220 212 207 220 234 225 234 208 194 181 172 173 164 160 164 165 168 167 169 173 176 180
350 351 352 354 353 349 348 349 349 348 348 348 347 346 335 326 332 332 324 320 313 296 272 293 289 236 257 277 287 258 216 219 225 220 217 216 213 211 206 205 209 208 210 217 221 224 222 220 221 227 232 230 235 242 244 242 226 219 226 226 222 221 230 238 225 207 205 209 203 217 235 218 239 216 187 176 172 175 166 161 171 178 176 173 174 176 179 180
349 350 351 352 353 351 348 349 349 349 350 351 351 351 341 332 338 336 325 334 341 312 213 204 313 266 254 261 273 243 219 219 220 214 213 212 211 212 203 202 205 204 208 213 218 224 219 217 219 221 230 229 222 226 231 235 223 210 216 225 228 226 223 229 238 208 195 203 202 209 226 216 219 204 180 173 169 182 184 170 173 184 179 173 175 176 177 180
349 349 350 351 353 352 349 349 349 350 354 355 358 359 352 346 345 345 346 349 354 343 250 223 222 251 250 248 251 247 231 218 214 211 208 204 206 209 202 200 201 200 206 210 213 219 213 210 216 216 221 225 220 216 218 224 223 214 212 218 225 232 233 222 226 210 191 200 206 207 217 217 206 176 177 185 181 190 200 175 162 176 188 177 174 175 176 181
349 350 350 350 353 353 350 351 350 354 360 2 10 10 0 353 346 357 48 352 321 287 278 225 200 233 293 277 255 251 264 223 203 204 201 197 199 204 201 199 201 199 202 205 204 209 208 202 212 219 215 214 217 217 219 224 228 226 218 217 220 224 237 232 221 203 191 199 210 211 212 214 208 185 182 202 205 191 180 175 163 170 190 182 172 176 179 182
350 350 350 350 352 354 351 351 354 0 5 8 11 11 4 358 349 350 356 310 283 274 280 272 243 252 279 287 278 247 242 223 198 200 198 193 192 197 198 197 200 201 203 206 197 199 208 209 212 217 215 213 215 219 224 227 233 241 231 219 222 220 229 237 226 198 194 204 211 213 215 213 211 203 185 189 212 196 160 174 174 168 181 180 175 179 180 183
350 349 351 350 350 354 352 351 359 5 10 13 7 7 8 3 351 324 322 305 285 273 268 269 263 259 262 267 271 261 250 237 207 204 198 190 192 194 193 194 197 201 204 207 199 195 208 223 220 216 217 217 216 218 224 227 231 242 248 235 227 222 224 235 231 200 193 207 209 210 219 216 207 210 195 184 207 210 176 170 167 170 177 176 182 181 179 185
350 348 351 351 347 353 353 350 3 8 8 11 4 5 6 354 339 317 315 301 288 280 264 263 262 259 257 257 259 263 270 255 215 205 196 187 193 195 186 190 200 200 198 203 202 195 209 227 223 214 216 221 221 217 220 227 229 234 246 249 239 225 217 228 234 210 191 205 203 202 218 223 210 208 205 197 203 212 205 179 163 174 183 177 183 180 177 188
349 348 350 350 345 350 354 349 2 7 359 357 356 359 355 340 332 321 310 294 288 283 263 253 249 246 248 246 246 249 253 245 220 205 194 188 195 197 189 190 201 202 194 201 206 199 210 225 221 216 215 219 223 220 217 222 229 230 234 241 245 239 227 220 226 212 197 212 212 203 215 223 219 215 211 209 207 206 214 200 167 170 181 180 181 180 178 184
348 347 348 349 345 346 355 355 358 3 353 346 351 353 347 335 332 330 314 289 280 280 267 253 241 234 236 235 232 232 232 231 226 208 192 191 195 196 198 195 198 206 200 201 209 214 221 218 209 214 217 217 221 222 218 217 222 229 231 233 238 239 241 241 228 210 195 204 216 217 220 219 219 223 219 212 211 203 201 207 175 166 176 180 178 184 182 182
346 346 347 349 344 342 355 6 354 358 358 355 354 345 340 335 332 332 318 291 272 275 269 251 233 232 231 225 218 217 222 226 225 214 196 195 195 193 202 200 198 211 205 202 211 221 227 221 204 206 215 218 219 220 219 217 219 224 227 233 238 237 239 246 245 225 202 197 205 219 232 222 214 222 225 215 216 206 188 198 188 168 173 180 180 184 184 183
345 345 345 349 345 340 351 3 357 2 1 350 348 340 335 334 331 328 317 289 279 268 245 208 201 218 215 209 203 200 216 227 222 219 205 197 197 196 201 202 203 213 208 203 214 225 227 227 217 207 209 214 218 221 217 217 222 225 219 223 235 242 240 240 242 236 226 209 199 207 225 228 216 219 222 218 218 210 189 193 194 177 174 178 180 183 183 184
345 343 342 346 347 343 348 355 3 8 355 338 339 336 330 329 330 328 314 269 276 229 135 152 171 177 191 193 186 183 207 216 210 220 214 198 196 201 207 205 203 210 208 203 215 220 216 222 224 214 209 211 216 219 214 214 221 228 218 213 222 235 241 242 242 240 240 229 206 201 207 223 233 222 218 221 223 218 201 195 197 187 180 178 177 179 183 184
344 342 340 343 347 349 347 350 360 357 341 333 332 330 326 325 324 320 299 275 310 90 100 94 111 70 205 188 183 189 214 182 187 213 214 201 195 200 213 213 208 207 205 210 216 212 208 216 223 217 213 212 214 215 211 213 220 225 224 218 215 221 231 240 246 252 251 248 230 205 199 211 230 221 218 222 224 225 212 203 206 192 182 185 182 178 183 185
344 341 339 340 344 352 345 339 344 335 328 329 327 326 324 319 312 299 252 271 310 21 64 126 110 156 178 179 189 202 220 216 198 198 202 204 197 200 217 217 216 213 209 219 227 218 212 213 218 222 220 214 213 214 210 213 218 217 225 232 221 214 219 229 238 250 251 251 249 228 214 217 227 215 215 218 219 227 218 203 212 194 179 188 189 178 181 185
344 340 339 341 342 351 349 328 325 328 327 326 325 325 319 309 297 264 240 250 283 350 358 55 31 357 197 187 198 209 221 235 249 195 192 201 197 201 218 217 221 227 214 222 229 231 230 215 211 222 228 216 212 215 210 213 216 208 218 232 228 217 212 217 226 236 245 241 240 242 236 233 243 231 222 222 208 218 226 204 206 202 178 184 192 176 173 179
342 338 339 346 349 354 353 330 327 331 328 325 325 322 311 294 269 241 247 290 310 347 357 2 360 349 312 267 224 212 215 230 251 220 191 196 194 199 214 213 219 229 220 220 223 229 235 226 210 212 224 220 210 213 211 208 210 205 208 218 219 214 208 212 213 214 232 235 225 234 237 233 238 233 234 241 207 204 228 215 206 207 180 178 190 176 166 174
339 336 340 357 358 350 340 325 327 329 325 324 323 318 307 278 248 231 257 300 313 355 358 344 342 340 319 311 294 237 217 212 234 232 200 195 194 195 206 208 202 209 219 217 210 216 226 232 225 206 214 220 210 207 210 202 199 202 203 206 212 200 189 208 212 209 225 234 223 223 227 233 240 235 236 245 223 201 217 226 221 206 178 176 188 181 168 172
337 333 343 6 354 333 321 321 324 325 325 325 317 307 298 277 266 260 268 291 339 354 348 339 332 326 314 305 297 269 237 208 216 226 210 199 201 200 206 213 208 205 217 215 205 209 214 224 229 215 203 212 214 204 202 197 189 198 202 200 207 196 185 204 210 216 225 226 225 223 222 230 239 236 233 238 236 217 210 216 220 200 180 181 183 179 171 170
337 331 338 354 345 333 328 325 325 326 324 321 311 299 289 276 277 286 290 324 355 347 342 341 329 317 308 290 282 284 263 225 212 219 213 201 204 206 204 212 215 214 218 216 209 211 213 212 218 220 198 194 210 213 204 196 187 197 204 203 209 202 197 205 205 215 225 220 217 219 222 230 232 227 225 230 234 236 228 214 207 194 184 180 174 177 179 173
339 334 330 331 332 338 334 326 326 325 322 320 312 300 284 282 308 341 346 351 347 339 337 332 320 307 301 283 269 266 263 249 219 215 217 211 210 211 207 209 215 216 214 215 213 208 220 220 206 215 212 194 201 211 209 200 192 195 199 206 212 205 205 214 214 216 221 225 212 211 222 229 238 237 224 225 221 224 235 230 214 194 178 176 177 183 187 179
343 343 335 320 312 334 334 330 330 323 319 323 323 313 292 305 352 10 359 346 338 335 333 329 323 306 293 283 274 272 296 301 253 225 212 216 222 218 215 209 209 216 216 214 218 209 218 225 202 204 213 209 199 199 208 210 198 186 196 210 208 204 215 225 224 218 217 227 218 211 223 220 234 240 221 224 223 214 215 226 233 198 168 175 185 182 186 185
345 341 329 302 296 331 336 331 329 317 310 315 320 316 304 313 340 351 343 337 334 332 329 327 328 317 308 309 311 322 338 336 301 267 218 208 224 222 220 217 207 214 222 224 231 226 223 226 206 199 205 209 198 192 208 218 213 191 192 206 203 204 219 231 236 222 213 226 220 213 223 214 213 224 212 215 223 221 207 207 230 208 167 179 188 177 182 191
343 330 310 281 303 333 335 324 323 313 300 302 308 306 303 310 327 337 333 330 332 333 326 318 317 317 316 317 319 327 332 330 320 306 252 210 213 218 226 229 214 210 217 224 232 234 233 231 210 202 200 199 190 189 205 216 220 220 197 192 200 207 206 210 234 230 217 227 221 219 229 221 206 205 211 210 207 223 219 197 212 219 187 186 185 173 178 189
341 324 307 336 337 334 331 316 310 300 287 302 322 324 322 315 323 330 329 332 336 332 321 316 318 313 308 314 319 321 323 322 324 322 293 249 223 76 18 335 254 231 226 230 233 228 236 245 220 201 194 188 183 191 202 205 214 226 217 194 200 215 204 199 219 230 229 225 215 223 232 234 222 197 199 207 194 207 227 203 197 215 208 182 171 168 177 188
338 315 325 38 357 339 332 306 288 284 291 316 321 323 325 322 327 325 326 340 339 325 322 318 316 310 307 318 318 315 328 328 317 314 306 308 350 52 29 4 338 337 326 285 249 226 228 242 239 207 190 188 189 195 199 196 199 214 220 202 193 203 208 204 209 219 236 235 217 223 223 230 238 198 190 204 190 187 217 218 191 205 210 176 163 170 178 184
328 297 321 0 352 345 331 302 281 298 308 313 318 320 323 325 323 314 319 334 324 316 322 312 309 308 305 314 318 320 328 318 309 307 300 319 351 18 13 358 344 335 325 307 262 227 223 227 237 228 202 197 196 194 198 200 199 202 211 210 197 194 201 206 206 207 221 240 240 238 234 239 254 193 184 194 183 172 198 220 195 197 208 181 167 175 179 183
326 305 316 332 343 346 328 302 313 344 295 320 337 319 320 323 312 309 320 326 317 318 317 305 304 305 303 310 318 322 319 304 304 301 295 327 345 337 344 350 339 325 315 309 283 247 233 228 234 233 233 219 198 189 195 204 205 204 208 213 205 195 199 208 206 196 204 224 238 250 251 278 26 39 151 153 159 161 181 214 194 190 209 195 177 180 179 182
333 318 315 334 0 346 322 300 339 331 301 336 335 314 317 322 314 317 325 323 322 322 312 310 315 310 310 318 313 310 312 304 298 295 303 329 337 319 326 340 335 322 322 336 330 293 255 236 234 236 266 257 208 186 191 204 208 208 206 210 213 202 198 208 211 197 199 207 212 233 237 171 60 38 73 67 108 165 171 196 189 182 211 207 186 181 177 176
326 308 304 341 9 346 317 313 342 325 315 332 328 316 318 321 321 323 321 322 327 320 311 317 323 317 312 312 305 302 307 302 298 317 331 336 326 317 322 336 335 318 321 352 344 329 304 237 226 231 249 244 206 184 186 199 207 217 206 202 213 211 198 203 213 203 203 207 202 210 221 157 98 72 83 90 234 192 162 180 189 181 204 217 192 173 166 166
322 310 308 336 351 333 305 317 331 315 313 324 322 316 316 316 323 325 316 316 322 322 324 324 320 316 311 309 306 301 298 290 294 331 358 342 321 316 321 333 329 309 316 338 322 309 304 266 244 230 215 211 199 189 193 194 197 219 214 198 205 215 206 197 205 210 202 197 197 209 214 142 119 113 123 153 206 205 150 171 186 158 152 204 160 151 158 162
321 319 323 337 338 323 306 317 324 318 314 321 319 314 315 313 322 333 317 315 334 333 326 327 321 314 312 315 315 308 302 295 297 335 355 334 322 316 319 327 323 318 332 326 300 293 298 277 272 255 234 220 179 149 209 212 197 208 216 202 197 211 215 200 196 214 202 179 195 211 186 141 140 156 171 169 184 170 148 169 170 111 91 66 74 107 141 161
323 320 330 341 335 326 327 328 327 322 310 313 317 310 311 311 316 331 316 316 358 345 322 326 318 306 314 322 319 314 314 310 317 347 343 328 328 321 321 323 320 331 341 322 277 287 301 269 267 259 251 245 216 123 352 313 235 209 213 208 195 201 213 211 201 201 189 181 195 185 158 160 163 162 155 143 144 155 158 165 139 98 92 90 94 101 117 145
334 319 325 340 339 322 327 323 318 311 301 305 314 304 305 309 307 315 319 315 332 0 344 323 298 297 314 324 321 316 320 324 333 349 343 332 332 327 327 326 319 336 346 328 286 313 305 274 277 263 254 251 244 245 274 315 310 256 224 213 199 196 206 211 211 199 187 193 192 166 165 168 148 142 140 137 141 117 110 123 109 95 98 109 122 123 122 129
334 315 318 336 332 305 301 304 305 303 299 305 310 299 299 303 301 308 319 312 313 354 8 298 299 316 319 317 317 312 319 327 323 329 333 325 324 326 330 323 318 335 344 330 316 348 331 284 288 272 257 252 252 256 259 274 301 305 267 222 202 195 201 208 216 206 191 197 194 171 176 162 140 146 145 141 142 108 95 101 92 90 118 128 133 144 143 142
324 320 318 324 314 294 292 297 301 303 302 303 303 303 302 297 300 310 315 313 317 329 299 285 304 318 308 306 309 299 306 314 302 305 312 307 315 326 325 311 310 325 332 329 335 352 340 287 280 280 266 256 259 256 247 248 268 294 295 250 209 195 198 203 213 212 194 193 197 180 177 173 141 131 113 113 122 104 98 100 81 68 92 118 123 126 134 142
303 307 313 318 309 292 292 296 300 301 300 300 304 312 310 304 307 310 309 309 313 313 299 297 305 307 300 303 301 294 301 299 285 289 295 293 298 304 298 292 299 312 320 324 333 339 331 305 283 279 266 257 264 250 232 232 265 281 288 269 226 205 204 198 203 216 200 185 193 189 181 170 123 110 107 100 92 82 77 80 76 68 68 92 104 54 50 113
294 299 307 311 299 283 288 291 293 296 300 311 315 310 303 303 304 302 300 300 299 291 283 286 294 302 300 300 302 305 307 295 285 288 287 284 283 279 272 276 284 293 302 312 321 324 328 329 308 290 275 254 261 254 229 215 260 264 262 256 238 248 237 202 193 210 211 194 192 192 183 174 140 121 128 131 117 107 96 81 76 70 66 77 84 62 51 111